Flag for U.S.A. Weather past 2 weeks in Passaic, New Jersey, U.S.A.

Now
51 °F

Overcast.


Feels Like: 46 °F
Forecast: 42 / 51 °F
Wind: 15 mph from Northwest

Location: Teterboro Airport

Current Time: Dec 25, 2014 at 4:26:43 PM

Latest Report: Dec 25, 2014 at 3:51 PM


Visibility: 10 mi

Pressure: 29.89 "Hg

Humidity: 42%

Dew point: 29 °F

Location of PassaicLocation

Historic Weather in Passaic — Graph

°F

Passaic temperature yesterday

Maximum temperature yesterday: 52 °F (at 8:58 PM)
Minimum temperature yesterday: 44 °F (at 8:51 AM)
Average temperature yesterday: 47 °F

Past Weeks' High & Low Weather Summary

 TemperatureHumidityPressure
High62 °F (Dec 25, 3:51 AM)100% (Dec 23, 5:51 PM)30.34 "Hg (Dec 23, 5:51 PM)
Low28 °F (Dec 15, 6:51 AM)20% (Dec 23, 6:51 AM)29.48 "Hg (Dec 25, 3:51 AM)
Average39 °F70%29.99 "Hg
* Reported Dec 10 2:58 PM — Dec 25 2:51 PM, Passaic, Weather by CustomWeather, © 2014

Note: Actual official high and low records may vary slightly from our data, if they occured in-between our weather recording intervals... More about our weather records

Advertising

Passaic weather history for previous 24 hours

 ConditionsComfort  
Time TempWeatherWind HumidityBarometerVisibility
2:51 PM
Dec 25
51 °FOvercast.18 mph46%29.86 "Hg10 mi
1:51 PM52 °FOvercast.16 mph41%29.82 "Hg10 mi
12:51 PM51 °FPartly sunny.20 mph44%29.78 "Hg10 mi
11:51 AM50 °FScattered clouds.23 mph50%29.75 "Hg10 mi
10:51 AM49 °FSunny.20 mph59%29.75 "Hg10 mi
9:51 AM50 °FSunny.14 mph59%29.72 "Hg10 mi
8:51 AM50 °FPartly sunny.9 mph46%29.68 "Hg10 mi
7:51 AM50 °FMore clouds than sun.12 mph44%29.63 "Hg10 mi
6:51 AM51 °FLight rain. Fog.7 mph39%29.59 "Hg10 mi
5:51 AM56 °FLight rain. Fog.10 mph37%29.57 "Hg10 mi
4:51 AM60 °FLight rain. Fog.10 mph21%29.52 "Hg10 mi
3:51 AM62 °FLight rain. Fog.12 mph30%29.48 "Hg10 mi
2:54 AM61 °FLight rain. Fog.8 mph31%29.51 "Hg10 mi
2:51 AM60 °FLight rain. Fog.9 mph33%29.51 "Hg3 mi
1:58 AM54 °FOvercast.No wind41%29.51 "Hg8 mi
12:51 AM52 °FFog.No wind100%29.51 "Hg1 mi
11:58 PM
Dec 24
52 °FFog.No wind100%29.52 "Hg1 mi
10:51 PM51 °FFog.No wind100%29.55 "Hg0 mi
9:51 PM51 °FDrizzle. Fog.No wind100%29.57 "Hg1 mi
8:58 PM52 °FDrizzle. Fog.No wind100%29.56 "Hg2 mi
7:51 PM50 °FFog.5 mph100%29.59 "Hg2 mi
6:51 PM50 °FLight rain. Fog.8 mph100%29.61 "Hg3 mi
5:51 PM50 °FLight rain. Fog.No wind100%29.63 "Hg3 mi
4:58 PM48 °FLight rain. Fog.No wind100%29.67 "Hg3 mi
4:01 PM48 °FLight rain. Low clouds.3 mph100%29.69 "Hg3 mi
Weather by CustomWeather, © 2014

See weather overviewHow to use our weather pages